COSMOS 2251 DEB, 38481

Orbit data source: Space-Track

COSMOS 2251 DEB, 38481 is space debris in LEO originally from a launch on Wed, 16 Jun 1993 UTC launched from the Plesetsk Missile And Space Complex (PKMTR). The debris from Iridium 33, an American commercial communications satellite, has been tracked extensively since its accidental collision with the defunct Russian satellite Cosmos 2251 in 2009. This event, occurring at high speed in low Earth orbit (LEO), generated thousands of pieces of space debris, significantly increasing the risk of further collisions. The Iridium 33 debris cloud has impacted space traffic management and orbital debris mitigation strategies, making it a subject of ongoing study in space situational awareness.

Loading next visibility...
Identifier
38481, 1993-036BTR
Orbit
LEO
Country
Flag of CISCIS
Related business
Manufacturer
Unknown
Mission
Spacecraft
Bus & Motor
Unknown
Mass
Unknown
Launch date (UTC)
1993-06-16 (33 years ago)
Launch vehicle
Unknown
Launch site
Plesetsk Missile And Space Complex (PKMTR)
Object type
Payload
Rocket body
Debris
Shape & HBR
Unknown shape, 0.1 m
Radar Cross Section
Small (<0.1 m²)

Expand to show TLE details & history
Last TLE update: 6 days ago

TLE from 6 days ago
0 COSMOS 2251 DEB
1 38481U 93036BTR 26252.34660557  .00000919  00000-0  55751-3 0  9993
2 38481  73.9291 259.4575 0225128 146.3633 215.2026 13.95843356628359
Epoch: 2026-09-09T08:19Z
TLE epoch observation values (Epoch: 2026-09-09T08:19:06.721Z)
Latitude
0.00004°
Longitude
146.27953°
Altitude
1,046.038 km
Speed
7.261 km/s
True Right ascension
17h 17m 49s
True Declination
0° 00' 00"
Sunlit
Object was in daylight at epoch
Visualization orbit readout
Latitude
Unknown
Longitude
Unknown
Altitude
Unknown
Speed
Unknown
Apparent Right ascension
Unknown
Apparent Declination
Unknown
Sunlit
N/A
Visualization observer readout
Local Sidereal Time
14:18:39
Azimuth
Unknown
Elevation
Unknown
Doppler factor
Unknown
Orbital elements
Apogee altitude
1,069.885 km
Perigee altitude
741.916 km
Semi-major axis
7,284.037 km
Eccentricity
0.02251
Inclination
73.9291°
RAAN
259.4575°
Arg. of periapsis
146.3633°
True anomaly
213.74905°
Mean anomaly
215.2026°
Eccentric anomaly
214.47251°
Mean motion
3.49128 °/min
Orbital period
103.11 mins
BSTAR
0.00055751
Loading maneuver chart data...
Computing Atmospheric mass density...

Documentation

Showing up to 5 results
|